Chihuahua, Mexico

1:40 AM MDT on August 31, 2016 (GMT -0600)
Chihuahua

Weather History for 76225 - March, 2013

Change the Weather History Date:

Monday, March 4, 2013

  Actual Average Record
Temperature  
Mean Temperature 68 °F -  
Max Temperature 82 °F 75 °F - ()
Min Temperature 55 °F 43 °F - ()
Cooling Degree Days 4    
Growing Degree Days 18 (Base 50)    
Moisture  
Dew Point 9 °F    
Average Humidity 7    
Maximum Humidity 14    
Minimum Humidity 4    
Precipitation  
Precipitation 0.00 in - - ()
Sea Level Pressure  
Sea Level Pressure 29.83 in    
Wind  
Wind Speed 12 mph ()    
Max Wind Speed 28 mph    
Max Gust Speed 31 mph    
Visibility 7.6 miles    
Events      
T = Trace of Precipitation, MM = Missing Value Source: Averaged Metar Reports

Daily Weather History Graph

Daily Weather History Graph

Search for Another Location

Airport or City:

Trip Planner

Search our weather history database for the weather conditions in past years. The results will help you decide how hot, cold, wet, or windy it might be!

Date:

Astronomy

Mar. 04, 2013 Rise Set
Actual Time 6:25 AM MST 6:05 PM MST
Civil Twilight 6:01 AM MST 6:29 PM MST
Nautical Twilight 5:34 AM MST 6:56 PM MST
Astronomical Twilight 5:07 AM MST 7:24 PM MST
Moon 12:18 AM MST (3/4) 11:10 AM MST (3/4)
Length of Visible Light 12h 27m
Length of Day
11h 40m
Waning Gibbous, 51% of the Moon is Illuminated
Mar 4
Waning Gibbous
Mar 4
Last Quarter
Mar 11
New
Mar 19
First Quarter
Mar 27
Full

Hourly Weather History & Observations

Time (MST) Temp. Dew Point Humidity Pressure Visibility Wind Dir Wind Speed Gust Speed Precip Events Conditions
1:50 AM 61 °F 16 °F 8% 29.70 in 1 mi West 6.7 mph - -   Partly Cloudy
4:50 AM 61 °F 16 °F 8% 29.70 in 1 mi WSW 6.7 mph - -   Partly Cloudy
5:48 AM 60.8 °F 10.4 °F 14% 29.80 in 10.0 mi SSW 15.0 mph - N/A   Mostly Cloudy
6:40 AM 57.2 °F 6.8 °F 13% 30.07 in 10.0 mi South 6.9 mph - N/A   Mostly Cloudy
7:40 AM 62.6 °F 8.6 °F 12% 29.85 in 10.0 mi SSW 4.6 mph - N/A   Mostly Cloudy
8:40 AM 64.4 °F 8.6 °F 11% 30.10 in 10.0 mi SSW 15.0 mph - N/A   Mostly Cloudy
9:40 AM 68.0 °F 3.2 °F 8% 30.09 in 10.0 mi South 21.9 mph - N/A   Mostly Cloudy
10:40 AM 73.4 °F 3.2 °F 6% 29.86 in 10.0 mi SSW 21.9 mph - N/A   Mostly Cloudy
10:45 AM 73 °F 19 °F 6% 29.78 in 6 mi WNW 11.2 mph - -   Partly Cloudy
11:40 AM 75.2 °F 3.2 °F 6% 30.04 in 10.0 mi WSW 27.6 mph - N/A   Mostly Cloudy
12:40 PM 78.8 °F 5.0 °F 6% 29.99 in 10.0 mi SW 26.5 mph - N/A   Mostly Cloudy
1:40 PM 82 °F 20 °F 4% 29.61 in 6 mi WNW 11.2 mph - -   Partly Cloudy
1:40 PM 82.4 °F 5.0 °F 5% 29.74 in 8.0 mi SW 18.4 mph 31.1 mph N/A   Mostly Cloudy
2:40 PM 82.4 °F 5.0 °F 5% 29.93 in 8.0 mi WSW 18.4 mph 27.6 mph N/A   Scattered Clouds
3:40 PM 80.6 °F 5.0 °F 6% 29.92 in 6.0 mi WSW 27.6 mph - N/A   Scattered Clouds
4:40 PM 78.8 °F 6.8 °F 6% 29.69 in 10.0 mi SW 19.6 mph 31.1 mph N/A   Mostly Cloudy
4:49 PM 78 °F 17 °F 4% 29.05 in 6 mi West 11.2 mph - -   Mostly Cloudy
5:40 PM 75.2 °F 8.6 °F 8% 29.95 in 10.0 mi SW 23.0 mph - N/A   Mostly Cloudy
6:40 PM 71.6 °F 3.2 °F 7% 29.99 in 10.0 mi SW 18.4 mph 27.6 mph N/A   Scattered Clouds
7:40 PM 72 °F 6 °F 4% 29.61 in 1 mi WNW 11.2 mph - -   Partly Cloudy
7:40 PM 69.8 °F 5.0 °F 8% 29.78 in 10.0 mi SW 25.3 mph - N/A   Scattered Clouds
8:40 PM 62.6 °F 5.0 °F 10% 30.06 in 10.0 mi East 4.6 mph - N/A   Scattered Clouds
10:30 PM 64 °F 11 °F 5% 29.69 in 1 mi WSW 4.5 mph - -   Scattered Clouds